Вернуться в каталог

STARLINK-37923

АктивенСвязьVLEO
NORAD 69949·PAYLOAD·🇺🇸 United States

Запущен Jul 9, 2026 с Cape Canaveral Space Force Station

Loading…

Ближайшие Пролёты (ближайшие 24 часа)

TLE

СвежийSource: CelesTrak SupGP

Эпоха: Sep 14, 2026, 21:27 UTC

1 69949C 26157G   26257.89423611 -.00002134  00000+0 -63062-4 0  2573
2 69949  53.1585   0.2424 0001199  85.3966  73.8832 15.34382056    14

Отслеживайте STARLINK-37923 в реальном времени с AllMySat

Download on the App Store